[[{"header":{"parameterUnit":"m.s-1","parameterCategory":1,"la1":30.2991,"la2":30.254,"lo1":-89.0895,"lo2":-89.0444,"dy":0.0017,"dx":0.0017,"nx":28,"ny":28,"refTime":"2025-04-10T09:00:00:Z","depth":0,"parameterNumber":2,"parameterNumberName":"U-component_of_WINDS"},"data":[0,0,0,0,0,0,0,0,0,0,0,0,0,0,0,0,0,0,0,0,0,0,0,0,0,0,0,0,0,0,0,0,0,0,0,0,0,0,0,0,0,0,0,0,0,0,0,0,0,0,0,0,0,0,0,0,0,0,2.7258,2.7259,0,2.7299,2.73,2.73,2.7289,2.7288,2.7287,2.7287,2.7334,2.7336,2.7338,0,0,0,0,0,0,0,0,0,0,0,0,0,2.7175,2.7176,2.7258,2.7259,2.7259,2.7299,2.73,2.73,2.7289,2.7288,2.7287,2.7286,2.7333,2.7336,2.7338,0,0,0,0,0,0,0,0,0,0,0,0,0,2.7213,2.7177,2.7258,2.7258,2.7259,2.7299,2.73,2.7301,2.7289,2.7288,2.7287,2.7286,2.7333,2.7336,2.7339,2.7383,0,0,2.7348,2.735,0,0,0,0,0,0,0,0,2.7211,2.7216,2.7258,2.7258,2.7259,2.7288,2.7288,2.7329,2.729,2.7278,2.7286,2.7285,2.732,2.7324,2.7335,2.7386,2.7388,2.7348,2.735,2.7352,2.7353,0,0,0,0,0,0,0,2.7208,2.7214,2.7275,2.7258,2.7259,2.7258,2.7262,2.7296,2.7306,2.7279,2.7278,2.7283,2.732,2.7332,2.7336,2.7388,2.7348,2.7351,2.7353,2.7354,2.748,2.7481,0,0,0,0,0,0,2.7205,2.7212,2.7273,2.7276,2.7231,2.7261,2.7265,2.728,2.7305,2.7308,2.7284,2.7282,2.7327,2.7332,2.7338,2.7393,2.7352,2.7355,2.7356,2.7478,2.748,2.7482,0,0,0,0,0,0,2.7203,2.721,2.7272,2.7244,2.7252,2.7263,2.728,2.7281,2.7293,2.7309,2.7311,2.7294,2.7326,2.7333,2.7372,2.7394,2.7356,2.7359,2.7477,2.7479,2.7481,2.7503,0,0,0,0,0,0,2.72,2.7209,2.7225,2.7244,2.7253,2.7304,2.7281,2.7283,2.7298,2.7296,2.7319,2.7322,2.7326,2.7368,2.7375,2.7398,2.7361,2.7475,2.7478,2.748,2.75,2.7506,2.751,0,0,0,0,0,2.7197,2.723,2.7226,2.7233,2.7273,2.7305,2.731,2.7313,2.7299,2.7316,2.7327,2.7321,2.739,2.7372,2.738,2.7404,2.7473,2.7477,2.748,2.7498,2.7505,2.751,0,0,0,0,0,0,2.7215,2.7233,2.7228,2.7268,2.7285,2.7303,2.7324,2.732,2.7342,2.734,2.7344,2.7349,2.739,2.7401,2.7379,2.745,2.743,2.7435,2.7441,2.7447,2.7452,2.7449,2.7364,0,0,0,0,0,2.7223,2.7247,2.7261,2.7295,2.7304,2.7313,2.7327,2.7327,2.7346,2.7354,2.7367,2.7387,2.7413,2.7431,2.7456,2.7501,2.7508,2.7522,2.7527,2.7531,2.7536,2.7563,2.757,2.7493,2.7493,2.7493,0,0,2.7241,2.7254,2.7269,2.7299,2.7312,2.7338,2.7319,2.7347,2.7366,2.7358,2.7396,2.7407,2.7429,2.7472,2.7492,2.7482,2.7559,2.7535,2.7538,2.7541,2.7567,2.7575,2.7581,2.7495,2.7495,2.7494,0,0,2.7287,2.7298,2.7328,2.7342,2.7362,2.7367,2.7375,2.7393,2.74,2.7437,2.7432,2.7457,2.7501,2.7518,2.7532,2.7586,2.7582,2.7594,2.762,2.7646,2.7652,2.7658,2.7679,2.7686,2.7598,2.7598,2.7598,0,2.7308,2.7345,2.7345,2.7373,2.7388,2.738,2.7412,2.7425,2.7453,2.7464,2.7453,2.751,2.7524,2.7572,2.7585,2.7596,2.7606,2.7592,2.7651,2.7657,2.7662,2.7682,2.7689,2.76,2.76,2.7599,2.7599,0,2.737,2.7395,2.7418,2.7443,2.746,2.749,2.7497,2.7514,2.7513,2.7521,2.756,2.7577,2.7606,2.7617,2.7617,2.7666,2.7659,2.765,2.7631,2.7671,2.769,2.7697,2.7602,2.7601,2.7601,2.7601,0,0,2.7429,2.7454,2.7462,2.7474,2.7496,2.7517,2.7547,2.7574,2.759,2.7609,2.7636,2.7675,2.7666,2.7682,2.7684,2.7707,2.775,2.7695,2.7695,2.7706,2.7807,2.7815,2.7823,2.7747,2.7748,2.775,2.7805,0,2.7478,2.7529,2.7531,2.7579,2.7604,2.7598,2.7624,2.7642,2.765,2.7674,2.7683,2.7711,2.7696,2.7706,2.7728,2.774,2.7771,2.7736,2.7775,2.7776,2.7771,2.7833,2.7842,2.7893,2.7812,2.7814,2.7815,0,2.7542,2.7562,2.7613,2.7632,2.7642,2.7666,2.7692,2.7714,2.7734,2.7738,2.7757,2.7756,2.7789,2.7768,2.7815,2.7791,2.7807,2.7816,2.7818,2.7823,2.7799,2.7841,2.791,2.7918,2.7826,2.7825,2.7824,0,2.7582,2.7622,2.7658,2.7668,2.7691,2.7708,2.7719,2.7737,2.7754,2.7777,2.7788,2.7815,2.783,2.7852,2.7859,2.7842,2.7907,2.7885,2.7913,2.7913,2.7928,2.7928,2.8002,2.7936,2.7936,2.7936,2.7935,0,2.7638,2.767,2.7676,2.7699,2.7735,2.7736,2.7773,2.7782,2.7799,2.7824,2.782,2.7845,2.7852,2.7878,2.7884,2.7923,2.793,2.7936,2.7938,2.7937,2.7937,2.7949,2.7946,2.7938,2.7937,2.7937,2.7936,0,2.769,2.7695,2.7734,2.7752,2.7757,2.7783,2.7799,2.7821,2.7829,2.7861,2.7869,2.7881,2.7912,2.792,2.7958,2.7962,2.8009,2.8006,2.8001,2.8002,2.803,2.8028,2.8116,2.8128,2.8053,2.8053,2.8054,0,2.7726,2.775,2.777,2.7786,2.7797,2.7822,2.7839,2.7842,2.786,2.7885,2.7905,2.7935,2.7959,2.8009,2.8022,2.8051,2.8051,2.8079,2.8055,2.8054,2.8053,2.8052,2.8056,2.8085,2.8085,2.8086,2.8087,0,2.779,2.7791,2.7814,2.7839,2.7858,2.7878,2.7897,2.7911,2.7917,2.7938,2.7968,2.7987,2.8024,2.8055,2.8084,2.8097,2.8094,2.8094,2.8102,2.8103,2.81,2.8104,2.8016,2.8092,2.8092,2.8091,2.8091,2.8091,2.7836,2.7857,2.7875,2.7901,2.7916,2.7934,2.7956,2.7965,2.799,2.802,2.8021,2.8054,2.8076,2.8114,2.8129,2.8157,2.8148,2.816,2.8163,2.8167,2.817,2.8094,2.8162,2.8162,2.8162,2.8162,2.8161,0,2.7901,2.7912,2.7936,2.7962,2.7983,2.7976,2.7997,2.8016,2.8045,2.8064,2.8087,2.8123,2.8153,2.8169,2.8199,2.8218,2.8218,2.8226,2.8226,2.8229,2.8174,2.8165,2.8226,2.8226,2.8226,2.8226,2.8226,2.8226,2.7938,2.7974,2.7978,2.8022,2.8033,2.8065,2.8078,2.8095,2.811,2.815,2.8174,2.8183,2.8202,2.8233,2.8261,2.8265,2.8277,2.8287,2.829,2.8239,2.8233,2.8227,2.8218,2.8289,2.8289,2.8343,2.8343,2.8344]},{"header":{"parameterUnit":"m.s-1","parameterCategory":1,"la1":30.2991,"la2":30.254,"lo1":-89.0895,"lo2":-89.0444,"dy":0.0017,"dx":0.0017,"nx":28,"ny":28,"refTime":"2025-04-10T09:00:00:Z","depth":0,"parameterNumber":3,"parameterNumberName":"V-component_of_WINDS"},"data":[0,0,0,0,0,0,0,0,0,0,0,0,0,0,0,0,0,0,0,0,0,0,0,0,0,0,0,0,0,0,0,0,0,0,0,0,0,0,0,0,0,0,0,0,0,0,0,0,0,0,0,0,0,0,0,0,0,0,1.172,1.172,0,1.171,1.171,1.171,1.17,1.17,1.17,1.1699,1.1687,1.1686,1.1686,0,0,0,0,0,0,0,0,0,0,0,0,0,1.1725,1.1725,1.172,1.172,1.172,1.171,1.171,1.171,1.17,1.17,1.1699,1.1699,1.1687,1.1686,1.1686,0,0,0,0,0,0,0,0,0,0,0,0,0,1.172,1.1725,1.172,1.1714,1.1713,1.171,1.171,1.171,1.17,1.17,1.1699,1.1699,1.1687,1.1686,1.1686,1.1688,0,0,1.1685,1.1685,0,0,0,0,0,0,0,0,1.172,1.172,1.1715,1.1714,1.1713,1.1706,1.1707,1.1703,1.17,1.1705,1.1699,1.1699,1.1693,1.1692,1.1691,1.1687,1.1687,1.1685,1.1685,1.1685,1.1685,0,0,0,0,0,0,0,1.1721,1.172,1.1716,1.1715,1.1714,1.171,1.1709,1.1706,1.17,1.1704,1.1704,1.1703,1.1693,1.1691,1.169,1.1687,1.1685,1.1685,1.1685,1.1684,1.168,1.168,0,0,0,0,0,0,1.1722,1.172,1.1716,1.1716,1.1716,1.171,1.1709,1.1709,1.17,1.1699,1.1703,1.1702,1.1692,1.1691,1.169,1.1689,1.1685,1.1684,1.1684,1.168,1.168,1.168,0,0,0,0,0,0,1.1723,1.1722,1.1717,1.1718,1.1717,1.171,1.171,1.1709,1.1707,1.1699,1.1697,1.1703,1.1691,1.169,1.1688,1.1689,1.1684,1.1684,1.168,1.168,1.168,1.1689,0,0,0,0,0,0,1.1723,1.1722,1.1725,1.1718,1.1717,1.1717,1.171,1.1708,1.1707,1.1706,1.1698,1.1697,1.1691,1.1688,1.1687,1.1688,1.1684,1.168,1.168,1.168,1.1689,1.169,1.169,0,0,0,0,0,1.1723,1.1728,1.1725,1.1724,1.172,1.1717,1.1716,1.171,1.1707,1.1708,1.1702,1.1697,1.1689,1.1688,1.1687,1.1688,1.168,1.168,1.168,1.1688,1.1689,1.169,0,0,0,0,0,0,1.1734,1.1727,1.1724,1.1727,1.1722,1.1715,1.1717,1.1712,1.1708,1.1707,1.1699,1.1697,1.1695,1.1691,1.1691,1.1687,1.1683,1.1683,1.169,1.1691,1.1691,1.1692,1.1683,0,0,0,0,0,1.1737,1.1737,1.173,1.1733,1.1731,1.1724,1.1723,1.1718,1.1713,1.1711,1.1706,1.17,1.1695,1.1693,1.1689,1.1688,1.1684,1.1687,1.1688,1.1689,1.1688,1.1684,1.1685,1.1681,1.1681,1.1681,0,0,1.1743,1.1739,1.174,1.1735,1.1732,1.1729,1.1723,1.1722,1.1719,1.1711,1.1708,1.1703,1.1696,1.1693,1.1692,1.169,1.1688,1.1689,1.1689,1.1689,1.1684,1.1685,1.1685,1.1681,1.1681,1.1681,0,0,1.1753,1.1751,1.1752,1.1748,1.1742,1.1737,1.1737,1.1729,1.1726,1.1723,1.1715,1.1711,1.1705,1.1699,1.1695,1.1699,1.1693,1.1697,1.1701,1.1697,1.1697,1.1698,1.1697,1.1697,1.1697,1.1697,1.1697,0,1.1761,1.1759,1.1753,1.1751,1.1748,1.174,1.1739,1.1735,1.1728,1.1725,1.1723,1.1712,1.1707,1.1702,1.1702,1.17,1.1698,1.1698,1.1698,1.1698,1.1698,1.1697,1.1697,1.1698,1.1698,1.1698,1.1698,0,1.1767,1.1766,1.1767,1.176,1.1757,1.1756,1.1747,1.1745,1.1739,1.1734,1.1728,1.1721,1.1714,1.1713,1.1708,1.1705,1.1704,1.17,1.1696,1.1699,1.1698,1.1697,1.1698,1.1698,1.1698,1.1698,0,0,1.1786,1.1773,1.1774,1.1769,1.176,1.1758,1.1755,1.1748,1.1745,1.1739,1.1735,1.1728,1.1723,1.1719,1.1713,1.1709,1.1709,1.1706,1.1705,1.1705,1.1702,1.1705,1.1704,1.1705,1.1705,1.1705,1.1702,0,1.1792,1.1788,1.1781,1.1778,1.1774,1.1765,1.1762,1.1755,1.1748,1.1743,1.1735,1.173,1.1725,1.1722,1.1718,1.171,1.1708,1.171,1.1699,1.1699,1.17,1.1704,1.1707,1.1705,1.1702,1.1702,1.1702,0,1.1801,1.1795,1.1792,1.178,1.1778,1.1776,1.1767,1.1763,1.1754,1.1749,1.1742,1.1735,1.1729,1.1726,1.1715,1.1716,1.1711,1.1706,1.1705,1.1704,1.17,1.1701,1.1705,1.1704,1.1701,1.1701,1.1701,0,1.1811,1.1803,1.1799,1.1796,1.1783,1.1781,1.1775,1.1766,1.1761,1.1753,1.1749,1.174,1.1735,1.1727,1.1716,1.1715,1.1706,1.1702,1.17,1.17,1.1698,1.1698,1.17,1.1697,1.1697,1.1697,1.1697,0,1.1819,1.1817,1.1804,1.1801,1.1797,1.1787,1.1783,1.1777,1.1768,1.1762,1.1753,1.1747,1.1735,1.1727,1.1718,1.1709,1.1707,1.1702,1.1699,1.1702,1.1702,1.1698,1.1697,1.1697,1.1697,1.1697,1.1697,0,1.1831,1.1822,1.1817,1.1805,1.1801,1.1799,1.1787,1.1783,1.1775,1.1768,1.1765,1.1753,1.1743,1.1731,1.1718,1.1712,1.1703,1.17,1.1706,1.1705,1.1702,1.1702,1.17,1.1698,1.1697,1.1697,1.1697,0,1.1836,1.1834,1.1821,1.1817,1.1811,1.1805,1.18,1.1789,1.1783,1.177,1.1767,1.1756,1.1747,1.1731,1.1719,1.1708,1.1704,1.1704,1.1702,1.1704,1.1702,1.1702,1.17,1.1705,1.1705,1.1705,1.1705,0,1.1846,1.1841,1.1834,1.1825,1.1818,1.181,1.1802,1.1799,1.1785,1.1779,1.1769,1.1762,1.1747,1.1735,1.1722,1.1714,1.1706,1.1705,1.1704,1.1706,1.1709,1.1705,1.1706,1.1705,1.1705,1.1705,1.1705,1.1705,1.1853,1.185,1.1839,1.1831,1.1823,1.1815,1.1809,1.18,1.1792,1.1779,1.1773,1.1762,1.1749,1.173,1.1722,1.1712,1.171,1.1708,1.1707,1.1707,1.1706,1.1711,1.1709,1.1709,1.1709,1.1709,1.1709,0,1.186,1.1853,1.1845,1.1833,1.1826,1.182,1.1809,1.1803,1.1794,1.1783,1.1773,1.176,1.1748,1.1734,1.1721,1.1715,1.1711,1.1712,1.1711,1.1709,1.171,1.1712,1.1715,1.1715,1.1715,1.1715,1.1715,1.1715,1.1863,1.1856,1.1849,1.1837,1.1829,1.1819,1.1813,1.1804,1.1795,1.178,1.177,1.1762,1.1749,1.1734,1.1721,1.1717,1.1712,1.1714,1.1708,1.171,1.1709,1.1709,1.1711,1.1713,1.1713,1.1708,1.1708,1.1708]}]]